Regional Weather Roundup
Issued by NWS

Home | Current Version | Previous Version | Graphics & Text | Print | Product List | Glossary Off
Versions: 1 2 3 4 5 6 7 8 9 10 11 12 13 14 15 16 17 18 19 20 21 22 23 24 25 26 27 28 29 30 31 32 33 34 35 36 37 38 39 40 41 42 43 44 45 46 47 48 49 50

000
ASUS43 KTOP 070308
RWRKS

WEATHER ROUNDUP FOR KANSAS
NATIONAL WEATHER SERVICE GOODLAND KS
1000 PM CDT WED MAY 06 2015

NOTE:  "FAIR" INDICATES FEW OR NO CLOUDS BELOW 12,000 FEET WITH NO
SIGNIFICANT WEATHER AND/OR OBSTRUCTIONS TO VISIBILITY.

KSZ001>006-013>018-027>032-041>047-070400-
NORTHWEST KANSAS

CITY           SKY/WX    TMP DP  RH WIND       PRES   REMARKS
GOODLAND       CLOUDY    61  51  70 SW16      29.69R
HAYS           PTCLDY    68  61  77 S21G26    29.64R
HILL CITY      PTCLDY    59  54  83 CALM      29.61R
RUSSELL        PTCLDY    68  61  78 S25G36    29.62R
$$

KSZ061>065-074>080-084>089-070400-
SOUTHWEST KANSAS

CITY           SKY/WX    TMP DP  RH WIND       PRES   REMARKS
DODGE CITY     MOCLDY    64  54  69 S10       29.65R
ELKHART          N/A     67  46  47 SW9         N/A
GARDEN CITY    MOCLDY    65  53  65 S14       29.62R
GREAT BEND     PTCLDY    66  59  77 S30G36    29.65R
LIBERAL        CLEAR     66  48  52 S15       29.68R
PRATT          PTCLDY    66  61  82 SE22G32   29.72R
$$

KSZ066>073-081>083-090>101-070400-
SOUTHEAST KANSAS

CITY           SKY/WX    TMP DP  RH WIND       PRES   REMARKS
CHANUTE        MOCLDY    71  57  61 SE18G30   29.84R
COFFEYVILLE    MOCLDY    70  57  63 SE14G24   29.84R
HUTCHINSON     CLOUDY    67  57  70 S28G36    29.71R
MEDICINE LODGE   N/A     67  60  78 SE10G18   29.73R
NEWTON         CLOUDY    70  61  73 S21G26    29.78S
PARSONS        MOCLDY    71  59  65 SE10G23   29.86R
WICHITA INTL   TSTM      67  58  72 SE25G36   29.77R
WICHITA JABRA  LGT RAIN  68  65  90 S24G40    29.80R
WICHITA MCCONL LGT RAIN  68  66  94 SE17      29.82R
WINFIELD       CLOUDY    70  65  84 SE14G21   29.79R
$$

KSZ007>012-019>026-033>040-048>060-102>105-070400-
NORTHEAST KANSAS

CITY           SKY/WX    TMP DP  RH WIND       PRES   REMARKS
CONCORDIA      CLOUDY    69  64  84 S28G38    29.65S
EMPORIA        CLOUDY    70  59  68 SE22G31   29.80R
LAWRENCE       MOCLDY    70  56  61 SE15      29.84R
MANHATTAN      MOCLDY    72  63  73 S22G32    29.73R
MARYSVILLE     LGT RAIN  68  61  77 S24G37    29.69F
OLATHE IND     PTCLDY    70  56  61 SE15      29.87R
OLATHE EXE     PTCLDY    69  58  67 SE12      29.87R
SALINA         MOCLDY    71  64  78 S28G45    29.68R
TOPEKA BILLARD CLOUDY    72  57  59 SE17G29   29.81R
TOPEKA FORBES  MOCLDY    72  57  59 SE21G30   29.80R
$$


USA.gov is the U.S. government's official web portal to all federal, state and local government web resources and services.